Regional Weather Roundup
Issued by NWS

Home | Current Version | Previous Version | Text Only | Print | Product List | Glossary Off
Versions: 1 2 3 4 5 6 7 8 9 10 11 12 13 14 15 16 17 18 19 20 21 22 23 24 25 26 27

000
ASUS45 KBOU 190406
RWRCO

WEATHER ROUNDUP FOR COLORADO
NATIONAL WEATHER SERVICE DENVER/BOULDER CO
1000 PM MDT FRI APR 18 2014

NOTE: "FAIR" INDICATES FEW OR NO CLOUDS BELOW 12000 FEET WITH NO
SIGNIFICANT WEATHER AND/OR OBSTRUCTIONS TO VISIBILITY.

COZ001>005-013-030-031-190500-
...NORTHWEST COLORADO...

CITY           SKY/WX    TMP DP  RH WIND       PRES   REMARKS
CRAIG          CLOUDY    55  32  41 N5        29.99R
HAYDEN         CLOUDY    55  27  33 NW10      30.02R
MEEKER         CLOUDY    58  25  28 E3        30.00R
MOUNT WERNER   CLOUDY    45   9  23 SW17G23   30.21R
STEAMBOAT SPGS CLOUDY    55  17  22 CALM      30.01R
WALDEN         CLOUDY    41  23  48 SW7       30.06R
$$

COZ006>008-011-190500-
...WEST CENTRAL VALLEYS...

CITY           SKY/WX    TMP DP  RH WIND       PRES   REMARKS
GRAND JUNCTION CLOUDY    62  27  26 NE7       29.95R
MONTROSE       CLOUDY    61  30  31 CALM      30.03R
EAGLE          CLOUDY    59  25  27 SW10      30.06R
RIFLE          CLOUDY    64  25  22 SW9       29.98R
DELTA          CLOUDY    69  26  20 E10G16    29.98R
NUCLA            N/A     61  23  23 SW9       30.07R
$$

COZ017>023-064>068-190500-
...SOUTHWEST COLORADO...

CITY           SKY/WX    TMP DP  RH WIND       PRES   REMARKS
DURANGO        CLOUDY    56  26  31 W8        30.10R
CORTEZ         PTCLDY    58  31  35 SW9       30.08R
PAGOSA SPRINGS CLOUDY    56  26  30 W6        30.16R
TELLURIDE      CLOUDY    46  30  53 SE10      30.21R
WOLF CREEK PAS CLOUDY    32  25  74 SW18G31   30.32R WCI  20
$$

COZ009-010-012-014-032>034-037-058>063-190500-
...CENTRAL COLORADO...

CITY           SKY/WX    TMP DP  RH WIND       PRES   REMARKS
ASPEN          MOCLDY    47  26  44 S7        30.11R
BUENA VISTA    MOCLDY    49  26  40 NW3       30.11R
COPPER MTN     PTCLDY    37  18  44 SW12      30.30R
BERTHOUD PASS  FAIR      32  23  69 W15       30.31S WCI  22
COTTONWOOD PAS PTCLDY    46  19  34 NW6       30.20R
GUNNISON       CLOUDY    52  25  35 CALM      30.15R
KREMMLING      MOCLDY    46  28  49 CALM      30.06S
LEADVILLE        N/A     34  22  61 CALM      30.19R
MONARCH PASS   PTCLDY    34  23  64 W18       30.41S WCI  23
SALIDA         PTCLDY    50  24  36 W9        30.16R
SUNLIGHT       CLOUDY    39  30  70 CALM      30.26R
WILKERSON PASS PTCLDY    37  19  48 W8        30.28S
$$

COZ069>075-190500-
...SAN LUIS VALLEY/SANGRE DE CRISTO MOUNTAINS...

CITY           SKY/WX    TMP DP  RH WIND       PRES   REMARKS
ALAMOSA        PTCLDY    51  27  39 W12       30.11R
LA VETA PASS   MOCLDY    45  18  33 SW13G26   30.23R
SAGUACHE       CLOUDY    52  23  32 CALM      30.11R
$$

COZ035-036-038>040-190500-
...NORTHERN COLORADO FRONT RANGE...

CITY           SKY/WX    TMP DP  RH WIND       PRES   REMARKS
DENVER INTL AP CLOUDY    63  29  27 S7        29.91R
DMNS CITY PARK   N/A     59  34  39 CALM      29.90F
AURORA         MOCLDY    61  32  33 E9        29.93R
FRONT RANGE AP NOT AVBL
ERIE MUNI ARPT CLOUDY    58  33  38 SW3       29.89R
BOULDER MUN AP CLOUDY    64  28  25 SE3       29.90R
CENTENNIAL     CLOUDY    58  30  34 S6        29.93S
BROOMFIELD     MOCLDY    63  28  27 SW8       29.92S
FORT COLLINS   CLOUDY    61  34  36 SW5       29.89R
LONGMONT       CLOUDY    60  34  37 CALM      29.90R
$$

COZ041-046-047-076>085-087-088-190500-
...PIKES PEAK/PALMER DIVIDE AND SOUTHERN FOOTHILLS...

CITY           SKY/WX    TMP DP  RH WIND       PRES   REMARKS
COLO. SPRINGS  MOCLDY    62  26  25 NW12      29.97R
A. F. ACADEMY  MOCLDY    59  24  26 E8        29.99S
ELLICOTT       NOT AVBL
FALCON         MOCLDY    54  26  33 W9        30.02R
FORT CARSON    MOCLDY    56  28  33 NW5       29.94R
LIMON          CLOUDY    51  31  46 CALM      29.94R
MONUMENT HILL  CLOUDY    52  27  37 SW7       30.01S
TRINIDAD       CLOUDY    61  34  36 VRB5      30.00R
$$

COZ042>045-048>051-090-091-190500-
...NORTHEAST COLORADO...

CITY           SKY/WX    TMP DP  RH WIND       PRES   REMARKS
GREELEY ARPT   CLOUDY    57  34  41 S7        29.86S
AKRON          CLOUDY    60  37  42 SE15      29.88S
BURLINGTON     MOCLDY    58  41  53 S22       29.93R
WRAY           MOCLDY    62  42  48 SE21      29.89S
STERLING       CLOUDY    66  37  34 S7        29.88R
HOLYOKE        MOCLDY    61  41  48 S17       29.87F
FORT MORGAN    CLOUDY    64  29  27 E16       29.87F
$$

COZ086-089-092>099-190500-
...SOUTHEAST COLORADO...

CITY           SKY/WX    TMP DP  RH WIND       PRES   REMARKS
PUEBLO         MOCLDY    62  38  40 W8        29.88R
LA JUNTA       CLOUDY    69  38  32 S14       29.87S
LAMAR          CLOUDY    66  40  38 S21       29.87R
SPRINGFIELD      N/A     61  40  45 S21       29.98R
$$



USA.gov is the U.S. government's official web portal to all federal, state and local government web resources and services.